This is the latest recevied weather packets stored in our database for station/object K5OLV. If no packets are shown the sender has not sent any weather packets the latest 10 day(s).
| Time | Temp. | Humidity | Pressure | Rain* | Wind** | Luminosity | Snow |
|---|---|---|---|---|---|---|---|
| 1777728809 | 10° C | 65% | 1012.4 hPa | 0 mm | - | 244 W/m² | - |
| 1777728506 | 10° C | 65% | 1012.2 hPa | 0 mm | - | 262 W/m² | - |
| 1777728203 | 9.44° C | 68% | 1012.4 hPa | 0 mm | - | 89 W/m² | - |
| 1777727901 | 9.44° C | 69% | 1012.3 hPa | 0 mm | - | 108 W/m² | - |
| 1777727598 | 10° C | 68% | 1012.1 hPa | 0 mm | - | 366 W/m² | - |
| 1777727294 | 10° C | 69% | 1012.5 hPa | 0 mm | - | 342 W/m² | - |
| 1777726992 | 9.44° C | 69% | 1012.3 hPa | 0 mm | - | 115 W/m² | - |
| 1777726689 | 9.44° C | 69% | 1012.1 hPa | 0 mm | - | 184 W/m² | - |
| 1777726386 | 9.44° C | 69% | 1011.9 hPa | 0 mm | - | 266 W/m² | - |
| 1777726083 | 9.44° C | 70% | 1011.9 hPa | 0 mm | - | 219 W/m² | - |
| 1777725780 | 9.44° C | 72% | 1012 hPa | 0 mm | - | 187 W/m² | - |
| 1777725478 | 9.44° C | 74% | 1011.7 hPa | 0 mm | - | 102 W/m² | - |
| 1777725175 | 9.44° C | 73% | 1011.6 hPa | 0 mm | - | 128 W/m² | - |
| 1777724871 | 9.44° C | 73% | 1011.6 hPa | 0 mm | - | 146 W/m² | - |
| 1777724568 | 9.44° C | 71% | 1011.5 hPa | 0 mm | - | 85 W/m² | - |
| 1777724266 | 9.44° C | 71% | 1011.5 hPa | 0 mm | - | 98 W/m² | - |
| 1777723964 | 9.44° C | 70% | 1011.5 hPa | 0 mm | - | 67 W/m² | - |
| 1777723660 | 9.44° C | 69% | 1011.4 hPa | 0 mm | - | 59 W/m² | - |
| 1777723357 | 9.44° C | 69% | 1011.4 hPa | 0 mm | - | 52 W/m² | - |
| 1777723054 | 9.44° C | 71% | 1011.6 hPa | 0 mm | - | 50 W/m² | - |
| 1777722751 | 9.44° C | 71% | 1011.4 hPa | 0 mm | - | 51 W/m² | - |
| 1777722447 | 8.89° C | 70% | 1011.5 hPa | 0 mm | - | 45 W/m² | - |
| 1777722144 | 8.89° C | 70% | 1011.5 hPa | 0 mm | - | 33 W/m² | - |
| 1777721841 | 8.89° C | 70% | 1011.4 hPa | 0 mm | - | 23 W/m² | - |
| 1777721539 | 8.89° C | 70% | 1011.4 hPa | 0 mm | - | 12 W/m² | - |
* Rain latest hour (hover to see other rain measurements)
** Current wind speed in m/s (hover to see current wind gust speed)